TimeCET,TemperatureF,Dew PointF,Humidity,Sea Level PressureIn,VisibilityMPH,Wind Direction,Wind SpeedMPH,Gust SpeedMPH,PrecipitationIn,Events,Conditions,WindDirDegrees,DateUTC
12:00 AM,44,35,63,30.17,,NE,3.5,,,,,50,2013-11-25 23:00:00
12:00 AM,44.6,39.2,81,30.15,6.2,NE,4.6,-,N/A,,Partly Cloudy,50,2013-11-25 23:00:00
12:30 AM,44.6,35.6,71,30.15,6.2,ENE,6.9,-,N/A,,Partly Cloudy,70,2013-11-25 23:30:00
1:00 AM,45,34,55,30.17,9,ESE,6.9,,,,Partly Cloudy,110,2013-11-26 00:00:00
1:00 AM,44.6,35.6,71,30.15,6.2,East,3.5,-,N/A,,Partly Cloudy,100,2013-11-26 00:00:00
1:30 AM,44.6,33.8,66,30.15,6.2,Variable,2.3,-,N/A,,Partly Cloudy,0,2013-11-26 00:30:00
2:00 AM,43,37,71,30.17,,NNW,3.5,,,,,340,2013-11-26 01:00:00
2:00 AM,42.8,35.6,76,30.15,6.2,Variable,2.3,-,N/A,,Scattered Clouds,0,2013-11-26 01:00:00
2:30 AM,44.6,39.2,81,30.15,6.2,NE,3.5,-,N/A,,Scattered Clouds,40,2013-11-26 01:30:00
3:00 AM,44,39,76,30.18,,Calm,Calm,,,,,,2013-11-26 02:00:00
3:00 AM,44.6,39.2,81,30.15,6.2,Variable,2.3,-,N/A,,Scattered Clouds,0,2013-11-26 02:00:00
3:30 AM,44.6,39.2,81,30.15,6.2,Variable,2.3,-,N/A,,Scattered Clouds,0,2013-11-26 02:30:00
4:00 AM,44.6,39.2,81,30.15,6.2,NNW,3.5,-,N/A,,Scattered Clouds,330,2013-11-26 03:00:00
4:30 AM,46.4,37.4,71,30.15,6.2,NNE,3.5,-,N/A,,Scattered Clouds,20,2013-11-26 03:30:00
5:00 AM,50,31,35,30.17,,ENE,3.5,,,,,70,2013-11-26 04:00:00
5:00 AM,50.0,30.2,47,30.15,6.2,NE,3.5,-,N/A,,Scattered Clouds,40,2013-11-26 04:00:00
5:30 AM,50.0,33.8,54,30.15,6.2,North,3.5,-,N/A,,Scattered Clouds,10,2013-11-26 04:30:00
6:00 AM,48.2,35.6,62,30.15,6.2,NE,13.8,-,N/A,,Scattered Clouds,50,2013-11-26 05:00:00
6:30 AM,48.2,33.8,58,30.15,6.2,NE,13.8,-,N/A,,Partly Cloudy,50,2013-11-26 05:30:00
7:00 AM,48,31,40,30.17,12,NE,8.1,,,,Scattered Clouds,40,2013-11-26 06:00:00
7:00 AM,48.2,32.0,54,30.15,6.2,NE,12.7,-,N/A,,Partly Cloudy,50,2013-11-26 06:00:00
7:30 AM,46.4,33.8,62,30.15,6.2,NE,12.7,-,N/A,,Scattered Clouds,50,2013-11-26 06:30:00
8:00 AM,48,33,44,30.19,,NE,9.2,,,,,50,2013-11-26 07:00:00
8:00 AM,48.2,32.0,54,30.18,6.2,NE,12.7,-,N/A,,Scattered Clouds,50,2013-11-26 07:00:00
8:30 AM,48.2,33.8,58,30.18,6.2,NE,13.8,-,N/A,,Scattered Clouds,50,2013-11-26 07:30:00
9:00 AM,50,32,38,30.22,,NE,12.7,,,,,50,2013-11-26 08:00:00
9:00 AM,50.0,33.8,54,30.21,6.2,NE,16.1,-,N/A,,Scattered Clouds,50,2013-11-26 08:00:00
9:30 AM,50.0,33.8,54,30.21,6.2,NE,11.5,-,N/A,,Scattered Clouds,50,2013-11-26 08:30:00
10:00 AM,50.0,35.6,58,30.21,6.2,NE,11.5,-,N/A,,Scattered Clouds,50,2013-11-26 09:00:00
10:30 AM,50.0,35.6,58,30.21,6.2,NE,15.0,-,N/A,,Scattered Clouds,50,2013-11-26 09:30:00
11:00 AM,51,35,43,30.23,,NE,13.8,,,,,40,2013-11-26 10:00:00
11:00 AM,50.0,35.6,58,30.21,6.2,NE,15.0,-,N/A,,Scattered Clouds,40,2013-11-26 10:00:00
11:30 AM,50.0,35.6,58,30.21,6.2,NE,12.7,-,N/A,,Scattered Clouds,40,2013-11-26 10:30:00
12:00 PM,51,36,46,30.23,,NNE,8.1,,,,,30,2013-11-26 11:00:00
12:00 PM,50.0,37.4,62,30.21,6.2,NE,11.5,-,N/A,,Scattered Clouds,40,2013-11-26 11:00:00
12:30 PM,51.8,37.4,58,30.21,6.2,NE,12.7,-,N/A,,Scattered Clouds,50,2013-11-26 11:30:00
1:00 PM,51,36,44,30.22,16,ENE,11.5,,,,Partly Cloudy,60,2013-11-26 12:00:00
1:00 PM,50.0,37.4,62,30.21,6.2,NE,15.0,-,N/A,,Scattered Clouds,50,2013-11-26 12:00:00
1:30 PM,50.0,37.4,62,30.21,6.2,NE,11.5,-,N/A,,Scattered Clouds,50,2013-11-26 12:30:00
2:00 PM,51,36,45,30.22,,NE,10.4,,,,,50,2013-11-26 13:00:00
2:00 PM,50.0,37.4,62,30.21,6.2,NE,13.8,-,N/A,,Scattered Clouds,50,2013-11-26 13:00:00
2:30 PM,51.8,37.4,58,30.21,6.2,NE,15.0,-,N/A,,Scattered Clouds,50,2013-11-26 13:30:00
3:00 PM,51,36,44,30.21,,NE,13.8,,,,,40,2013-11-26 14:00:00
3:00 PM,51.8,35.6,54,30.18,6.2,NE,17.3,-,N/A,,Scattered Clouds,50,2013-11-26 14:00:00
3:30 PM,51.8,35.6,54,30.18,6.2,NE,13.8,-,N/A,,Scattered Clouds,40,2013-11-26 14:30:00
4:00 PM,50.0,35.6,58,30.21,6.2,NE,13.8,-,N/A,,Scattered Clouds,40,2013-11-26 15:00:00
4:30 PM,50.0,35.6,58,30.21,6.2,NE,17.3,-,N/A,,Scattered Clouds,50,2013-11-26 15:30:00
5:00 PM,49,36,49,30.22,,NE,11.5,,,,,50,2013-11-26 16:00:00
5:00 PM,50.0,35.6,58,30.21,6.2,NE,13.8,-,N/A,,Scattered Clouds,50,2013-11-26 16:00:00
5:30 PM,50.0,35.6,58,30.21,6.2,NE,11.5,-,N/A,,Scattered Clouds,50,2013-11-26 16:30:00
6:00 PM,49,36,50,30.23,,ENE,6.9,,,,,70,2013-11-26 17:00:00
6:00 PM,48.2,37.4,66,30.21,6.2,ENE,8.1,-,N/A,,Scattered Clouds,60,2013-11-26 17:00:00
6:30 PM,50.0,37.4,62,30.21,6.2,NE,5.8,-,N/A,,Scattered Clouds,50,2013-11-26 17:30:00
7:00 PM,49,37,52,30.24,16,NNE,4.6,,,,Mostly Cloudy,20,2013-11-26 18:00:00
7:00 PM,50.0,37.4,62,30.24,6.2,NNE,5.8,-,N/A,,Mostly Cloudy,30,2013-11-26 18:00:00
7:30 PM,50.0,37.4,62,30.24,6.2,NE,5.8,-,N/A,,Mostly Cloudy,40,2013-11-26 18:30:00
8:00 PM,49,37,54,30.25,,North,1.2,,,,,0,2013-11-26 19:00:00
8:00 PM,48.2,37.4,66,30.24,6.2,NNE,2.3,-,N/A,,Mostly Cloudy,20,2013-11-26 19:00:00
8:30 PM,50.0,39.2,66,30.24,6.2,NNE,1.2,-,N/A,,Mostly Cloudy,20,2013-11-26 19:30:00
9:00 PM,49,38,55,30.25,,NNE,4.6,,,,,30,2013-11-26 20:00:00
9:00 PM,48.2,39.2,71,30.24,6.2,Variable,2.3,-,N/A,,Mostly Cloudy,0,2013-11-26 20:00:00
9:30 PM,48.2,39.2,71,30.24,6.2,North,5.8,-,N/A,,Mostly Cloudy,10,2013-11-26 20:30:00
10:00 PM,48.2,39.2,71,30.24,6.2,North,4.6,-,N/A,,Mostly Cloudy,10,2013-11-26 21:00:00
10:30 PM,48.2,39.2,71,30.24,6.2,North,1.2,-,N/A,,Mostly Cloudy,360,2013-11-26 21:30:00
11:00 PM,47,39,65,30.25,,NNW,3.5,,,,,330,2013-11-26 22:00:00
11:00 PM,46.4,39.2,76,30.24,6.2,NNW,3.5,-,N/A,,Mostly Cloudy,340,2013-11-26 22:00:00
11:30 PM,46.4,39.2,76,30.24,6.2,NW,3.5,-,N/A,,Mostly Cloudy,320,2013-11-26 22:30:00